View from above orbital plane
|
View from above satellite
|
Ground track
|
The orbit data is extracted from the following two-line orbital elements,
1 40017U 14033H 21016.14444380 -.00000067 00000-0 -41242-6 0 9995
2 40017 98.0550 337.5165 0022720 323.9106 36.0583 14.93719587358328
Epoch (UTC): | 16 January 2021 03:27:59 |
Eccentricity: | 0.0022720 |
inclination: | 98.0550° |
perigee height: | 570 km |
apogee height: | 602 km |
right ascension of ascending node: | 337.5165° |
argument of perigee: | 323.9106° |
revolutions per day: | 14.93719587 |
mean anomaly at epoch: | 36.0583° |
orbit number at epoch: | 35832 |
The dashed part of the orbit path shows where the satellite is in the earth's shadow,
|
|